"Time","Temp","Dewpoint","Humidity","Pressure","Direction","Speed","Gust","Precip","PrecipRate"
"00:04:57","33.5","30.9","90","30.13","328","2.6","3.6","0.00","0.00"
"00:09:57","33.4","30.8","90","30.13","328","0.4","2.3","0.00","0.00"
"00:14:58","33.3","30.7","90","30.14","328","0","0","0.00","0.00"
"00:19:57","33.1","30.4","89.8","30.14","328","0","0","0.00","0.00"
"00:24:56","32.8","30.2","90","30.14","328","0.5","2.4","0.00","0.00"
"00:29:59","32.8","30.3","90.5","30.14","328","0.6","2.4","0.00","0.00"
"00:34:57","32.8","30.5","91","30.14","328","2","3.6","0.00","0.00"
"00:39:58","32.7","30.4","91","30.14","328","1.9","3.6","0.00","0.00"
"00:44:58","32.7","30.4","91","30.15","328","0","1.2","0.00","0.00"
"00:49:56","32.7","30.4","91","30.15","328","0.1","1.2","0.00","0.00"
"00:54:56","32.6","30.3","91","30.15","328","0","0","0.00","0.00"
"00:59:58","32.4","30","90.8","30.16","328","0","0","0.00","0.00"
"01:04:57","32.2","29.9","91","30.16","328","0","0","0.00","0.00"
"01:09:56","32.1","29.8","91.1","30.16","328","0.1","2.4","0.00","0.00"
"01:14:58","32.2","30.1","92","30.16","328","1.7","2.4","0.00","0.00"
"01:19:56","32.4","30.3","92","30.16","328","0.3","1.2","0.00","0.00"
"01:24:56","32.4","30.3","92","30.16","328","0.6","2.4","0.00","0.00"
"01:29:54","32.3","30.2","92","30.17","328","0.3","2.3","0.00","0.00"
"01:34:57","32.2","30.1","92","30.17","328","0","0","0.00","0.00"
"01:39:58","32.1","30","92","30.17","328","0","0","0.00","0.00"
"01:44:57","32.2","30.1","92","30.17","328","0","0","0.00","0.00"
"01:49:56","32.1","30","92","30.17","328","0","0","0.00","0.00"
"01:54:59","32.1","30","92","30.17","328","0","0","0.00","0.00"
"01:59:54","32.1","30.3","92.9","30.18","328","0","0","0.00","0.00"
"02:04:57","32.2","30.4","93","30.18","328","0","0","0.00","0.00"
"02:09:56","32.3","30.5","93","30.18","328","0","0","0.00","0.00"
"02:14:49","32.4","30.6","93","30.18","328","0","0","0.00","0.00"
"02:19:56","32.6","30.8","93","30.17","328","0","0","0.00","0.00"
"02:24:56","32.8","31","93.1","30.17","328","0","0","0.00","0.00"
"02:29:58","33","31.5","94","30.17","328","0.1","1.2","0.00","0.00"
"02:34:57","33.1","31.4","93.3","30.17","328","0.7","1.2","0.00","0.00"
"02:39:58","33.2","31.4","93","30.17","328","0.6","2.4","0.00","0.00"
"02:44:57","33.2","31.4","92.8","30.17","328","0.3","2.3","0.00","0.00"
"02:49:59","33.1","31","92","30.17","328","0","0","0.00","0.00"
"02:54:58","33","31.1","92.5","30.17","328","0","0","0.00","0.00"
"02:59:57","33","31.2","93","30.17","328","0","0","0.00","0.00"
"03:04:56","33.1","31.3","93","30.17","328","0","0","0.00","0.00"
"03:09:59","33.1","31.3","93","30.17","328","0","0","0.00","0.00"
"03:14:56","33.2","31.4","93","30.17","328","0","0","0.00","0.00"
"03:19:59","33.2","31.4","93","30.17","328","0","0","0.00","0.00"
"03:24:58","33.1","31.3","93","30.17","328","0","0","0.00","0.00"
"03:29:56","33","31.1","92.6","30.17","328","0","0","0.00","0.00"
"03:34:59","32.8","30.7","91.9","30.17","328","0","0","0.00","0.00"
"03:39:56","32.6","30.4","91.6","30.17","328","0","0","0.00","0.00"
"03:44:58","32.4","30.3","92","30.18","328","0","0","0.00","0.00"
"03:49:57","32.3","30.4","92.5","30.18","328","0.7","2.4","0.00","0.00"
"03:54:56","32.3","30.5","93","30.18","328","0","1.2","0.00","0.00"
"03:59:59","32.3","30.3","92.5","30.18","328","0","0","0.00","0.00"
"04:04:57","32.1","30.2","92.5","30.18","328","0","0","0.00","0.00"
"04:09:56","32.1","30.3","93","30.18","328","0","0","0.00","0.00"
"04:14:57","32.1","30.3","93","30.19","328","0","0","0.00","0.00"
"04:19:59","32.1","30.3","93","30.19","328","0.1","1.2","0.00","0.00"
"04:24:58","32.2","30.6","93.7","30.19","328","0","0","0.00","0.00"
"04:29:57","32.4","30.9","94","30.19","328","0","0","0.00","0.00"
"04:34:59","32.6","31.1","94","30.19","328","0","0","0.00","0.00"
"04:39:56","32.7","31.2","94","30.19","328","0.4","2.4","0.00","0.00"
"04:44:59","32.9","31.4","94","30.20","328","0","0","0.00","0.00"
"04:49:57","33.1","31.6","94","30.20","328","0","0","0.00","0.00"
"04:54:56","33.4","31.9","94","30.20","328","0","0","0.00","0.00"
"04:59:56","33.5","32","94","30.20","328","0","0","0.00","0.00"
"05:04:58","33.6","32.1","94","30.20","328","0","0","0.00","0.00"
"05:09:57","33.8","32.3","94","30.20","328","0.3","2.4","0.00","0.00"
"05:14:58","33.9","32.4","94","30.21","328","0.3","2.3","0.00","0.00"
"05:19:57","34","32.5","94","30.21","328","0","0","0.00","0.00"
"05:24:59","34.2","32.7","94","30.21","328","0.1","1.2","0.00","0.00"
"05:29:58","34.4","32.9","94","30.21","328","0.1","1.2","0.00","0.00"
"05:34:57","34.6","33.1","94","30.21","328","0","1.2","0.00","0.00"
"05:39:57","34.8","33.2","94","30.21","328","0","0","0.00","0.00"
"05:44:56","35","33.4","94","30.22","328","0","1.2","0.00","0.00"
"05:49:58","35.1","33.5","94","30.22","328","0","1.2","0.00","0.00"
"05:54:57","35.4","33.8","94","30.22","328","0.2","1.2","0.00","0.00"
"05:59:55","35.5","33.9","94","30.22","328","0","0","0.00","0.00"
"06:04:57","35.6","34","94","30.22","328","0","0","0.00","0.00"
"06:09:58","35.7","34.1","94","30.22","328","0","1.2","0.00","0.00"
"06:14:59","35.8","34.1","93.3","30.23","328","0","0","0.00","0.00"
"06:19:58","35.9","34.1","93.1","30.23","328","0","1.2","0.00","0.00"
"06:24:57","36.1","34.4","93.6","30.23","328","0","0","0.00","0.00"
"06:29:59","36.2","34.5","93.7","30.23","328","0.6","2.4","0.00","0.00"
"06:34:58","36.3","34.5","93","30.23","328","0.2","2.3","0.00","0.00"
"06:39:59","36.4","34.6","93","30.23","328","0.2","2.4","0.00","0.00"
"06:44:58","36.5","34.7","93","30.24","328","0.2","2.3","0.00","0.00"
"06:49:57","36.6","34.8","93","30.24","328","0","0","0.00","0.00"
"06:54:56","36.7","34.9","93","30.24","328","0","0","0.00","0.00"
"06:59:58","36.8","35","93","30.25","328","0","0","0.00","0.00"
"07:04:57","36.9","35.1","93","30.25","328","0","0","0.00","0.00"
"07:09:56","37","35.2","93","30.25","328","0","0","0.00","0.00"
"07:14:56","37.1","35.3","93","30.25","328","0.4","3.6","0.00","0.00"
"07:19:56","37.2","35.2","92.2","30.25","328","0.1","3.5","0.00","0.00"
"07:24:58","37.3","35.2","92","30.25","328","1.1","3.6","0.00","0.00"
"07:29:58","37.5","35.4","92","30.26","328","0","1.2","0.00","0.00"
"07:34:56","37.6","35.5","92","30.26","328","0","0","0.00","0.00"
"07:39:57","37.7","35.7","92.4","30.26","328","0.3","1.2","0.00","0.00"
"07:44:56","37.9","36.1","93","30.27","328","0.2","2.4","0.00","0.00"
"07:49:58","38.1","36.1","92.5","30.27","328","0","0","0.00","0.00"
"07:54:57","38.2","36.1","92","30.27","328","0","0","0.00","0.00"
"07:59:56","38.4","36.3","92","30.28","328","0","1.2","0.00","0.00"
"08:04:58","38.6","36.5","91.9","30.28","328","0.4","2.4","0.00","0.00"
"08:09:57","38.8","36.7","91.9","30.28","328","0","0","0.00","0.00"
"08:14:58","39","36.9","92","30.29","328","0","0","0.00","0.00"
"08:19:57","39.2","36.9","91.5","30.29","328","0","0","0.00","0.00"
"08:24:56","39.4","37","91","30.29","328","0","0","0.00","0.00"
"08:29:59","39.6","37.2","91","30.29","328","0","0","0.00","0.00"
"08:34:57","39.8","37.1","90","30.29","328","0.2","2.4","0.00","0.00"
"08:39:58","40","37.5","90.6","30.29","328","0.4","2.3","0.00","0.00"
"08:44:57","40.2","37.7","90.8","30.30","328","0","0","0.00","0.00"
"08:49:56","40.3","37.6","90","30.30","328","0","0","0.00","0.00"
"08:54:58","40.5","37.7","89.5","30.30","328","0.2","1.2","0.00","0.00"
"08:59:56","40.8","37.8","89","30.30","328","0.2","1.2","0.00","0.00"
"09:04:58","41.1","38.1","89","30.30","328","0","1.2","0.00","0.00"
"09:09:57","41.5","38.8","90","30.30","328","0","0","0.00","0.00"
"09:14:58","41.9","38.9","89.1","30.31","328","0","0","0.00","0.00"
"09:19:56","42.3","39.1","88.2","30.31","328","0","2.4","0.00","0.00"
"09:24:58","42.8","39.2","87.2","30.31","327","0.6","2.4","0.00","0.00"
"09:29:56","43.3","39.5","86.3","30.31","327","0.3","2.4","0.00","0.00"
"09:34:58","43.9","39.4","84.3","30.30","328","0.9","2.4","0.00","0.00"
"09:39:59","44.4","39.1","81.6","30.30","329","0.3","2.3","0.00","0.00"
"09:44:57","44.9","39","79.7","30.32","329","0.1","1.2","0.00","0.00"
"09:49:56","45.4","39.4","79.2","30.32","269","0.5","3.6","0.00","0.00"
"09:54:58","45.8","38.7","76.1","30.32","180","1.4","4.8","0.00","0.00"
"09:59:56","46.1","38.2","73.7","30.32","131","1.5","4.8","0.00","0.00"
"10:04:58","46.4","37.9","72.2","30.32","149","2.2","7.2","0.00","0.00"
"10:09:56","46.6","38","71.9","30.32","138","1.7","3.6","0.00","0.00"
"10:14:57","46.9","38.4","72.2","30.32","154","1.6","4.8","0.00","0.00"
"10:19:58","47.1","38.1","70.7","30.32","161","2.7","4.8","0.00","0.00"
"10:24:56","47.2","38.5","71.8","30.32","183","2.9","6","0.00","0.00"
"10:29:57","47.3","38.9","72.5","30.32","192","3.1","6","0.00","0.00"
"10:34:56","47.5","39.4","73.5","30.32","179","3","7.2","0.00","0.00"
"10:39:56","47.5","39.5","73.5","30.32","197","2.5","6","0.00","0.00"
"10:44:58","47.5","39.6","73.8","30.32","201","1.9","6","0.00","0.00"
"10:49:56","47.6","39.5","73.1","30.32","162","2.9","7.2","0.00","0.00"
"10:54:57","47.7","39.4","72.9","30.32","171","3.1","7.2","0.00","0.00"
"10:59:59","47.7","39.2","72.2","30.32","138","3.1","7.2","0.00","0.00"
"11:04:57","47.8","39.6","73.2","30.31","149","2.4","6","0.00","0.00"
"11:09:32","47.8","39.5","72.8","30.31","121","2.9","6","0.00","0.00"
"11:14:56","47.9","38.8","70.3","30.31","118","3.1","8.4","0.00","0.00"
"11:19:58","48","38.3","69","30.30","162","4.4","7.2","0.00","0.00"
"11:24:56","48","37.9","68","30.30","162","3.6","7.2","0.00","0.00"
"11:29:58","48.1","38.4","68.9","30.30","155","3.2","6.9","0.00","0.00"
"11:34:56","48.5","38.5","68.4","30.30","172","2.9","7.2","0.00","0.00"
"11:39:59","48.6","38","66.8","30.30","176","2.7","7.2","0.00","0.00"
"11:44:57","48.6","38.1","67.2","30.30","178","3","7.2","0.00","0.00"
"11:49:59","48.6","38","66.8","30.29","158","3.4","6.9","0.00","0.00"
"11:54:57","48.7","37.9","66.2","30.29","162","3","10.8","0.00","0.00"
"11:59:58","48.9","37.7","65.4","30.29","144","3.6","7.2","0.00","0.00"
"12:04:32","49.2","38","65.2","30.28","163","4","7.2","0.00","0.00"
"12:09:59","49.8","38.3","64.6","30.28","125","4.7","10.8","0.00","0.00"
"12:14:59","50.5","38.7","63.8","30.28","135","3.4","10.4","0.00","0.00"
"12:19:57","50.8","38.2","61.8","30.28","162","4.3","10.8","0.00","0.00"
"12:24:58","50.6","38.4","62.7","30.28","109","3.7","9.6","0.00","0.00"
"12:29:56","50.4","38","62.3","30.28","121","6","15","0.00","0.00"
"12:34:58","50.1","37.8","62.5","30.27","134","4.9","12","0.00","0.00"
"12:39:58","49.9","37.8","63","30.27","135","5","12","0.00","0.00"
"12:44:56","49.9","38.5","64.9","30.27","149","2.9","12","0.00","0.00"
"12:49:57","50.3","38.4","63.6","30.27","173","5.3","15","0.00","0.00"
"12:54:58","50.5","38.7","63.7","30.27","187","4.6","7.2","0.00","0.00"
"12:59:59","51","38.8","63.1","30.27","185","3.9","13.2","0.00","0.00"
"13:04:57","50.9","38.6","62.7","30.26","194","5.2","12.7","0.00","0.00"
"13:09:56","50.8","38.4","62.5","30.26","172","5.5","12","0.00","0.00"
"13:14:56","50.5","37.9","61.8","30.26","134","3.9","10.8","0.00","0.00"
"13:19:57","50.4","38","62.4","30.25","162","4.3","10.4","0.00","0.00"
"13:24:59","50.4","38.2","62.7","30.25","129","4.7","10.8","0.00","0.00"
"13:29:57","50.5","38.7","63.8","30.25","164","2.8","6","0.00","0.00"
"13:34:59","50.7","38.8","63.5","30.24","184","3.1","7.2","0.00","0.00"
"13:39:59","51","39","63.5","30.24","167","3.1","7.2","0.00","0.00"
"13:44:57","51.4","39.1","62.8","30.24","107","4.3","9.6","0.00","0.00"
"13:49:59","51.3","39.1","63","30.24","166","2.6","7.2","0.00","0.00"
"13:54:57","51.3","39","62.6","30.24","155","2.7","6","0.00","0.00"
"13:59:59","51.5","39.2","62.9","30.24","173","3.1","12","0.00","0.00"
"14:04:57","51.7","39.3","62.5","30.23","167","3.4","7.2","0.00","0.00"
"14:09:56","51.9","38.9","61","30.23","151","3.9","8.4","0.00","0.00"
"14:14:59","51.8","38.9","61.2","30.23","179","4.6","9.6","0.00","0.00"
"14:19:57","51.7","39.1","61.9","30.23","161","4.6","12","0.00","0.00"
"14:24:59","51.6","38.8","61.6","30.23","134","4","8.4","0.00","0.00"
"14:29:56","51.6","39.1","62.2","30.23","145","3.8","8.4","0.00","0.00"
"14:34:57","52","39.7","62.8","30.23","181","3","8.4","0.00","0.00"
"14:39:57","52.2","39.8","62.3","30.23","110","4.7","8.4","0.00","0.00"
"14:44:59","52.3","39.3","61.2","30.23","115","3.7","6.9","0.00","0.00"
"14:49:57","52.3","39.6","61.7","30.23","116","2.8","6","0.00","0.00"
"14:54:59","52.3","39.2","61.1","30.23","118","3.9","7.2","0.00","0.00"
"14:59:56","52","39.1","61.3","30.23","146","4.3","7.2","0.00","0.00"
"15:04:58","51.7","39","61.7","30.22","136","3.3","6","0.00","0.00"
"15:09:57","51.6","39.3","62.6","30.22","166","3.4","12","0.00","0.00"
"15:14:57","51.6","38.9","61.7","30.22","172","3.5","7.2","0.00","0.00"
"15:19:59","51.6","39.2","62.6","30.22","162","2.3","4.8","0.00","0.00"
"15:24:56","51.5","39.2","62.9","30.22","126","3.3","6","0.00","0.00"
"15:29:57","51.4","38.8","62.1","30.22","126","4.2","10.8","0.00","0.00"
"15:34:58","51.4","39.1","62.7","30.22","119","4.1","9.6","0.00","0.00"
"15:39:58","51.4","39","62.6","30.22","117","4.6","9.2","0.00","0.00"
"15:44:59","51.3","39.2","63.2","30.22","114","4.1","12","0.00","0.00"
"15:49:57","51.1","38.9","63","30.22","105","3","8.4","0.00","0.00"
"15:54:59","51","38.8","63","30.22","128","3.7","8.1","0.00","0.00"
"15:59:56","50.8","38.8","63.3","30.22","110","5.2","10.8","0.00","0.00"
"16:04:58","50.7","38.8","63.4","30.21","122","4.6","10.4","0.00","0.00"
"16:09:57","50.6","38.9","64","30.21","126","3","7.2","0.00","0.00"
"16:14:57","50.5","38.9","64.2","30.21","114","4.1","12","0.00","0.00"
"16:19:59","50.4","38.9","64.5","30.21","109","3.1","8.4","0.00","0.00"
"16:24:56","50.3","38.8","64.5","30.21","121","4.8","8.4","0.00","0.00"
"16:29:58","50.2","38.9","65","30.21","115","3","6","0.00","0.00"
"16:34:56","50.1","38.8","65.1","30.21","98","2.7","4.8","0.00","0.00"
"16:39:56","49.8","38.6","65.1","30.21","110","3.4","7.2","0.00","0.00"
"16:44:58","49.6","38.7","65.9","30.21","116","3.7","7.2","0.00","0.00"
"16:49:56","49.4","38.5","66","30.21","119","3.6","6","0.00","0.00"
"16:54:58","49.2","38.3","66.2","30.21","117","2","6","0.00","0.00"
"16:59:57","48.9","38.3","66.7","30.22","119","2.4","6","0.00","0.00"
"17:04:59","48.8","38.3","67","30.22","120","1.8","4.8","0.00","0.00"
"17:09:58","48.5","38.2","67.3","30.22","120","2.2","4.8","0.00","0.00"
"17:14:58","48.3","38.2","68","30.23","121","1.2","3.6","0.00","0.00"
"17:19:56","48.1","38","68","30.23","121","1.9","6","0.00","0.00"
"17:24:58","47.9","38.1","68.7","30.23","121","2.3","4.8","0.00","0.00"
"17:29:56","47.8","38.1","69","30.23","119","2","8.4","0.00","0.00"
"17:34:58","47.7","38.3","69.8","30.22","125","3.2","6","0.00","0.00"
"17:39:58","47.6","38.3","70","30.22","140","1.5","4.8","0.00","0.00"
"17:44:56","47.4","38.1","70","30.22","141","1.3","3.6","0.00","0.00"
"17:49:58","47.2","38.3","70.9","30.22","141","2","3.6","0.00","0.00"
"17:54:56","47","38.1","71","30.22","141","1.1","3.6","0.00","0.00"
"17:59:58","46.8","38.1","71.7","30.22","141","1.9","3.6","0.00","0.00"
"18:04:56","46.6","38.1","72","30.22","141","1.6","3.5","0.00","0.00"
"18:09:59","46.5","38","72","30.22","141","0.6","2.4","0.00","0.00"
"18:14:59","46.3","37.9","72.3","30.22","141","0","0","0.00","0.00"
"18:19:57","46.2","38","73","30.22","141","0","0","0.00","0.00"
"18:24:56","46","37.8","73","30.22","141","0","0","0.00","0.00"
"18:29:58","45.8","37.6","73","30.24","141","0","0","0.00","0.00"
"18:34:56","45.5","37.7","73.9","30.24","141","0","0","0.00","0.00"
"18:39:56","45.4","37.7","74.4","30.24","141","0","0","0.00","0.00"
"18:44:59","45.3","37.8","75","30.24","141","0","0","0.00","0.00"
"18:49:57","45.2","37.9","75.3","30.24","141","1.5","3.6","0.00","0.00"
"18:54:59","45.2","38.1","76","30.24","141","0.5","3.5","0.00","0.00"
"18:59:57","45.1","38","76","30.24","141","0.8","2.4","0.00","0.00"
"19:04:59","45","38","76.2","30.24","141","1.2","2.4","0.00","0.00"
"19:09:58","45","38.2","77","30.24","141","0.5","3.6","0.00","0.00"
"19:14:59","44.9","38.1","77","30.24","141","0.1","2.4","0.00","0.00"
"19:19:58","44.9","38.1","77","30.22","141","0.4","2.4","0.00","0.00"
"19:24:56","44.9","38.4","77.8","30.22","141","0.8","2.4","0.00","0.00"
"19:29:58","44.9","38.5","78","30.22","141","0.4","2.4","0.00","0.00"
"19:34:57","44.9","38.5","78","30.22","141","0","1.2","0.00","0.00"
"19:39:58","44.9","38.5","78","30.22","141","0","0","0.00","0.00"
"19:44:57","44.9","38.5","78","30.22","141","0","0","0.00","0.00"
"19:49:56","44.9","38.7","78.7","30.22","141","0","0","0.00","0.00"
"19:54:58","44.9","38.7","78.6","30.22","141","0.4","3.6","0.00","0.00"
"19:59:56","44.9","38.6","78.5","30.22","141","1.4","3.6","0.00","0.00"
"20:04:58","44.9","38.5","78.2","30.21","141","0.4","2.4","0.00","0.00"
"20:09:57","44.7","38.4","78.2","30.21","141","0","0","0.00","0.00"
"20:14:58","44.5","38.1","78","30.22","141","0","0","0.00","0.00"
"20:19:56","44.3","38.1","78.5","30.22","141","0","0","0.00","0.00"
"20:24:58","44.3","38.2","79","30.22","141","0.2","1.2","0.00","0.00"
"20:29:56","44.2","38.1","79","30.22","141","0.8","4.8","0.00","0.00"
"20:34:57","44.2","38","78.9","30.21","141","0.8","3.5","0.00","0.00"
"20:39:57","44","37.6","78","30.21","141","0.1","1.2","0.00","0.00"
"20:44:59","43.6","37.4","78.6","30.21","141","0","0","0.00","0.00"
"20:49:57","43.2","37.3","79.5","30.21","141","0","0","0.00","0.00"
"20:54:55","43.1","37.3","80","30.21","141","0","0","0.00","0.00"
"20:59:57","42.8","37.1","80","30.21","141","0","0","0.00","0.00"
"21:04:59","42.5","36.9","80.4","30.21","141","0","0","0.00","0.00"
"21:09:59","42.2","36.8","81","30.21","141","0","0","0.00","0.00"
"21:14:59","41.9","36.7","81.8","30.21","141","0","0","0.00","0.00"
"21:19:58","41.7","36.8","82.9","30.21","141","0","0","0.00","0.00"
"21:24:56","41.5","36.7","83","30.21","141","0","0","0.00","0.00"
"21:29:59","41.5","36.7","83.2","30.21","141","0","0","0.00","0.00"
"21:34:57","41.5","37","84","30.21","141","0","0","0.00","0.00"
"21:39:57","41.7","37.1","83.9","30.21","141","0.4","3.6","0.00","0.00"
"21:44:59","42","37.2","83","30.21","141","1.4","3.6","0.00","0.00"
"21:49:57","42.5","37.6","82.9","30.21","141","0.9","3.5","0.00","0.00"
"21:54:59","42.9","37.7","81.6","30.21","140","1.8","6","0.00","0.00"
"21:59:57","43.4","38","81","30.21","135","2.3","5.8","0.00","0.00"
"22:04:56","43.7","37.9","80","30.21","136","1.4","3.6","0.00","0.00"
"22:09:59","43.8","37.9","79.7","30.21","136","1.2","3.6","0.00","0.00"
"22:14:56","43.9","37.8","79","30.21","137","1.3","3.6","0.00","0.00"
"22:19:58","43.9","37.8","79","30.20","137","1.7","3.6","0.00","0.00"
"22:24:59","44","37.9","79","30.20","137","1.4","3.6","0.00","0.00"
"22:29:58","44","37.9","79","30.20","137","1.7","3.6","0.00","0.00"
"22:34:56","43.8","37.8","79","30.18","137","0.6","2.4","0.00","0.00"
"22:39:56","43.8","37.7","79","30.18","137","0.3","2.4","0.00","0.00"
"22:44:59","43.7","37.6","79","30.19","137","0.1","2.3","0.00","0.00"
"22:49:56","43.7","37.6","79","30.19","137","1.2","3.6","0.00","0.00"
"22:54:58","43.7","37.6","79","30.19","137","0.3","2.3","0.00","0.00"
"22:59:57","43.7","37.6","79","30.19","137","0.4","3.6","0.00","0.00"
"23:04:59","43.7","37.6","79","30.19","137","0.3","2.4","0.00","0.00"
"23:09:58","43.6","37.5","79","30.19","137","0.4","2.4","0.00","0.00"
"23:14:58","43.6","37.5","79.1","30.19","137","0.4","1.2","0.00","0.00"
"23:19:56","43.5","37.7","80","30.17","137","0.3","2.4","0.00","0.00"
"23:24:58","43.3","37.5","80","30.17","137","0.2","2.3","0.00","0.00"
"23:29:56","43.1","37.4","80.2","30.18","137","0","0","0.00","0.00"
"23:34:59","42.8","37.4","81","30.18","137","0","0","0.00","0.00"
"23:39:59","42.7","37.3","81","30.18","137","0","0","0.00","0.00"
"23:44:57","42.6","37.2","81","30.18","137","0","0","0.00","0.00"
"23:49:56","42.6","37.4","81.8","30.17","137","0.1","1.2","0.00","0.00"
